Featured Flight

MET1453 - Detroit to Chicago

Boeing 737-200
711MT
0 hrs 40 mins
199 nm
Scheduled - Daily

Bid/PiRep Status

Bid was submitted on Dec 27 2016.

PiRep # 74493: Approved by Dave Nichols on December 30th, 2016 2:54 UTC

Departure

Departing from
Detroit (DTW)
Departure gate
Scheduled Departure
GMT 1950
Local 1550
METAR KDTW 270753Z 00000KT 10SM SCT090 BKN120 16/13 A2987 RMK AO2 RAE52 SLP113 P0000 T01560133
TAF KDTW 270520Z 2706/2812 10004KT P6SM -SHRA SCT040 OVC100 FM270900 VRB04KT P6SM SCT006 OVC100 TEMPO 2709/2712 5SM BR SCT006 FM271600 07005KT P6SM BKN025 FM271800 08005KT P6SM BKN040 FM280100 11003KT P6SM SCT040

Arrival

Arriving at
Chicago (MDW)
Arrival gate
Scheduled Arrival
GMT 2030
Local 1530

Route Map

Planning Resources

DTW JXN LFD GSH CGT MDW
JXN V116 LEROY GSH
CRL.BENJO.GIJ.
CRL-BENJO-GIJ
PALACE3 LEROY GSH GSH3
Route:
OFP Layout:
Units:
Detailed Navlog:
ETOPS Planning:
Plan Stepclimbs:
Runway Analysis:
Include NOTAMS:
FIR NOTAMS:
Flight Maps:

Popularity

Hub Current Bids PiReps this month Total PiReps
KMCI 0 0 1
KLAX 0 0 1
KBOS 0 0 0